Location: Springfield
(37.2150°N, 93.2980°W)
Time: 08:10:03
(UTC-05:00)

NOAA 11 - Pass Details

Date: 19 April 2018
Orbit: 833 x 850 km, 98.5° (Epoch: 17 September)

Event Time Altitude Azimuth Distance (km) Brightness Sun altitude
Exits shadow 21:35:29 24° 168° (SSE) 1,688 5.4 -19.7°
Maximum altitude 21:38:56 86° 255° (WSW) 856 4.2 -20.2°
Drops below altitude 10° 21:44:28 10° 346° (NNW) 2,482 7.3 -21.2°
Sets 21:46:51 0° 347° (NNW) 3,421 8.1 -21.5°
